Pedro Bay, AK

7:38 AM AKST on February 06, 2016 (GMT -0900)
Iliamna

Weather History for PAIL - May, 2013

Change the Weather History Date:

Friday, May 17, 2013

  Actual Average (PADQ) Record (PADQ)
Temperature  
Mean Temperature 34 °F 45 °F  
Max Temperature 42 °F 50 °F 77 °F (2014)
Min Temperature 25 °F 39 °F 28 °F (1966)
Degree Days  
Heating Degree Days 31 20  
Month to date heating degree days 374  
Since 1 July heating degree days 8066  
Cooling Degree Days 0    
Month to date cooling degree days  
Year to date cooling degree days  
Moisture  
Dew Point 20 °F    
Average Humidity 57    
Maximum Humidity 92    
Minimum Humidity 24    
Precipitation  
Precipitation 0.00 in 0.18 in 1.90 in (1977)
Month to date precipitation 2.93  
Year to date precipitation 28.70  
Snow  
Snow 0.00 in 0.00 in T in (1991)
Month to date snowfall 0.2  
Since 1 July snowfall 68.9  
Snow Depth -    
Sea Level Pressure  
Sea Level Pressure 29.60 in    
Wind  
Wind Speed 11 mph (NW)    
Max Wind Speed 24 mph    
Max Gust Speed 39 mph    
Visibility 10 miles    
Events      
T = Trace of Precipitation, MM = Missing Value Source: NWS Daily Summary

Daily Weather History Graph

Daily Weather History Graph

Search for Another Location

Airport or City:

Trip Planner

Search our weather history database for the weather conditions in past years. The results will help you decide how hot, cold, wet, or windy it might be!

Date:

Astronomy

May. 17, 2013 Rise Set
Actual Time 5:38 AM AKDT 10:55 PM AKDT
Civil Twilight 4:33 AM AKDT 12:00 AM AKDT
Nautical Twilight 2:48 AM AKDT 1:43 AM AKDT
Astronomical Twilight Sun does not rise Sun does not rise
Moon 1:13 PM AKDT (5/17) 3:06 AM AKDT (5/17)
Length of Visible Light 19h 27m
Length of Day
17h 17m
Waxing Crescent, 46% of the Moon is Illuminated
May 17
Waxing Crescent
May 17
First Quarter
May 24
Full
May 31
Last Quarter
Jun 8
New

Hourly Weather History & Observations

Time (AKDT) Temp. Windchill Dew Point Humidity Pressure Visibility Wind Dir Wind Speed Gust Speed Precip Events Conditions
12:53 AM 35.1 °F 30.1 °F 33.1 °F 92% 29.49 in 10.0 mi NW 5.8 mph - N/A   Clear
1:53 AM 35.1 °F 32.2 °F 32.0 °F 89% 29.49 in 10.0 mi NW 3.5 mph - N/A   Clear
2:53 AM 34.0 °F - 32.0 °F 92% 29.49 in 10.0 mi Calm Calm - N/A   Clear
3:53 AM 33.1 °F 26.9 °F 28.0 °F 82% 29.49 in 10.0 mi NW 6.9 mph - N/A   Clear
4:53 AM 33.1 °F 27.7 °F 27.0 °F 78% 29.49 in 10.0 mi North 5.8 mph - N/A   Clear
5:53 AM 33.1 °F 25.5 °F 25.0 °F 72% 29.50 in 10.0 mi NNW 9.2 mph - N/A   Partly Cloudy
6:53 AM 33.1 °F 25.5 °F 25.0 °F 72% 29.51 in 10.0 mi North 9.2 mph - N/A   Overcast
7:53 AM 34.0 °F 26.0 °F 24.1 °F 67% 29.52 in 10.0 mi NNW 10.4 mph - N/A   Overcast
8:53 AM 34.0 °F 25.5 °F 24.1 °F 67% 29.53 in 10.0 mi NNW 11.5 mph - N/A   Overcast
9:53 AM 35.1 °F 24.8 °F 25.0 °F 67% 29.55 in 10.0 mi NNW 17.3 mph 24.2 mph N/A   Overcast
10:53 AM 37.0 °F 28.9 °F 25.0 °F 62% 29.57 in 10.0 mi NNW 12.7 mph - N/A   Overcast
11:53 AM 37.9 °F 28.5 °F 23.0 °F 55% 29.59 in 10.0 mi WNW 17.3 mph 24.2 mph N/A   Scattered Clouds
12:53 PM 37.9 °F 28.5 °F 21.0 °F 51% 29.60 in 10.0 mi NW 17.3 mph 25.3 mph N/A   Scattered Clouds
1:53 PM 39.0 °F 29.0 °F 18.0 °F 43% 29.62 in 10.0 mi NNW 20.7 mph 25.3 mph N/A   Clear
2:53 PM 39.0 °F 29.9 °F 16.0 °F 39% 29.63 in 10.0 mi NNW 17.3 mph 25.3 mph N/A   Clear
3:53 PM 39.0 °F 30.3 °F 15.1 °F 38% 29.64 in 10.0 mi NNW 16.1 mph 26.5 mph N/A   Partly Cloudy
4:53 PM 37.9 °F 27.1 °F 14.0 °F 38% 29.66 in 10.0 mi NNW 23.0 mph 31.1 mph N/A   Clear
5:53 PM 36.0 °F 25.3 °F 12.0 °F 37% 29.67 in 10.0 mi WNW 19.6 mph 33.4 mph N/A   Clear
6:53 PM 35.1 °F 23.0 °F 10.9 °F 37% 29.69 in 10.0 mi WNW 24.2 mph 29.9 mph N/A   Clear
7:53 PM 34.0 °F 22.7 °F 10.9 °F 38% 29.71 in 10.0 mi WNW 19.6 mph 33.4 mph N/A   Clear
8:53 PM 30.9 °F 17.5 °F 10.9 °F 43% 29.73 in 10.0 mi WNW 24.2 mph 33.4 mph N/A   Clear
9:53 PM 28.9 °F 16.1 °F 10.9 °F 47% 29.75 in 10.0 mi NW 19.6 mph 39.1 mph N/A   Clear
10:53 PM 26.1 °F 11.0 °F 10.0 °F 51% 29.78 in 10.0 mi NW 24.2 mph 36.8 mph N/A   Clear
11:53 PM 25.0 °F 11.3 °F 10.0 °F 53% 29.80 in 10.0 mi NW 18.4 mph 33.4 mph N/A   Clear